QPF
0.07 0.07 0.08 0.10 0.07 0.06 0.07 0.08 0.06 0.06 0.05 0.04 0.03 0.02 0.03 0.02 0.00 0.01 0.02 0.01 0.01 0.01 0.01 0.01 0.02 0.02 0.02 0.01 0.01 0.01 0.01 0.01 0.01 0.02 0.01 0.01 0.01 0.01 0.01 0.01 0.01 0.01 0.01
0.09 0.09 0.08 0.08 0.06 0.06 0.07 0.06 0.04 0.06 0.06 0.04 0.03 0.02 0.02 0.02 0.01 0.01 0.03 0.03 0.01 0.01 0.01 0.02 0.04 0.04 0.04 0.02 0.02 0.01 0.01 0.01 0.02 0.02 0.02 0.01 0.01 0.01 0.01 0.01 0.01 0.01 0.01
0.09 0.10 0.11 0.09 0.07 0.07 0.08 0.05 0.05 0.04 0.04 0.04 0.03 0.01 0.01 0.01 0.03 0.04 0.03 0.03 0.03 0.01 0.01 0.02 0.03 0.04 0.05 0.06 0.06 0.05 0.04 0.02 0.02 0.02 0.02 0.02 0.02 0.02 0.02 0.02 0.02 0.02 0.03
0.07 0.09 0.11 0.09 0.11 0.08 0.07 0.09 0.07 0.06 0.06 0.05 0.03 0.02 0.02 0.02 0.02 0.03 0.04 0.04 0.05 0.04 0.02 0.02 0.03 0.04 0.06 0.08 0.10 0.10 0.07 0.05 0.03 0.04 0.05 0.04 0.03 0.03 0.03 0.03 0.03 0.03 0.03
0.05 0.08 0.11 0.12 0.11 0.09 0.07 0.06 0.10 0.11 0.14 0.11 0.05 0.03 0.02 0.01 0.02 0.02 0.03 0.04 0.04 0.04 0.03 0.04 0.03 0.04 0.06 0.08 0.11 0.10 0.08 0.07 0.07 0.07 0.07 0.05 0.05 0.05 0.06 0.07 0.06 0.04 0.03
0.06 0.08 0.08 0.10 0.09 0.11 0.10 0.10 0.13 0.14 0.14 0.12 0.06 0.07 0.07 0.03 0.02 0.02 0.03 0.03 0.03 0.03 0.04 0.07 0.12 0.10 0.09 0.08 0.08 0.09 0.09 0.10 0.11 0.11 0.10 0.09 0.09 0.10 0.11 0.11 0.11 0.09 0.07
0.07 0.08 0.05 0.09 0.08 0.08 0.09 0.10 0.13 0.15 0.14 0.13 0.12 0.10 0.08 0.06 0.06 0.05 0.05 0.05 0.06 0.07 0.07 0.09 0.12 0.12 0.11 0.09 0.07 0.08 0.09 0.11 0.12 0.12 0.13 0.13 0.13 0.12 0.10 0.10 0.12 0.13 0.14
0.06 0.06 0.08 0.07 0.07 0.08 0.09 0.10 0.14 0.14 0.14 0.17 0.15 0.16 0.17 0.15 0.11 0.07 0.08 0.10 0.09 0.08 0.08 0.07 0.09 0.12 0.13 0.12 0.09 0.08 0.08 0.10 0.12 0.11 0.11 0.11 0.10 0.09 0.09 0.10 0.10 0.09 0.09
0.05 0.07 0.10 0.08 0.07 0.07 0.10 0.13 0.13 0.14 0.14 0.15 0.15 0.16 0.19 0.18 0.16 0.12 0.14 0.15 0.10 0.08 0.08 0.08 0.09 0.10 0.11 0.12 0.12 0.11 0.08 0.07 0.08 0.09 0.09 0.08 0.07 0.07 0.08 0.09 0.09 0.08 0.07
0.04 0.05 0.05 0.06 0.07 0.08 0.10 0.09 0.11 0.15 0.15 0.14 0.16 0.15 0.15 0.17 0.18 0.18 0.13 0.10 0.09 0.08 0.09 0.10 0.11 0.08 0.10 0.11 0.11 0.10 0.08 0.06 0.05 0.05 0.06 0.06 0.06 0.05 0.06 0.08 0.10 0.10 0.10
0.04 0.04 0.04 0.05 0.07 0.09 0.11 0.11 0.16 0.16 0.15 0.16 0.17 0.18 0.18 0.18 0.18 0.19 0.16 0.13 0.12 0.10 0.11 0.10 0.07 0.05 0.07 0.10 0.11 0.11 0.10 0.08 0.05 0.03 0.04 0.05 0.05 0.06 0.07 0.09 0.11 0.13 0.12
0.06 0.05 0.05 0.07 0.08 0.09 0.10 0.11 0.12 0.11 0.15 0.18 0.20 0.21 0.19 0.17 0.18 0.19 0.16 0.17 0.17 0.12 0.09 0.07 0.06 0.06 0.08 0.10 0.13 0.14 0.10 0.09 0.08 0.07 0.06 0.05 0.05 0.07 0.08 0.09 0.10 0.10 0.11
0.06 0.05 0.06 0.07 0.08 0.08 0.08 0.08 0.08 0.09 0.11 0.14 0.14 0.14 0.14 0.13 0.15 0.15 0.15 0.15 0.14 0.10 0.09 0.09 0.08 0.08 0.08 0.11 0.15 0.14 0.08 0.08 0.09 0.07 0.04 0.04 0.04 0.04 0.05 0.07 0.08 0.09 0.12
0.04 0.04 0.06 0.06 0.06 0.06 0.06 0.09 0.10 0.11 0.11 0.11 0.10 0.12 0.11 0.11 0.12 0.12 0.12 0.14 0.13 0.11 0.12 0.11 0.11 0.09 0.09 0.11 0.16 0.12 0.08 0.09 0.06 0.05 0.04 0.03 0.03 0.03 0.03 0.05 0.07 0.07 0.09
0.03 0.03 0.04 0.04 0.04 0.05 0.08 0.11 0.12 0.10 0.10 0.09 0.09 0.11 0.11 0.10 0.10 0.11 0.13 0.16 0.18 0.17 0.17 0.17 0.15 0.12 0.11 0.12 0.12 0.10 0.08 0.08 0.07 0.06 0.04 0.03 0.02 0.03 0.03 0.03 0.03 0.04 0.04
0.03 0.02 0.02 0.03 0.04 0.04 0.06 0.10 0.11 0.10 0.09 0.09 0.08 0.09 0.09 0.08 0.08 0.09 0.14 0.17 0.20 0.21 0.20 0.19 0.19 0.18 0.15 0.10 0.09 0.09 0.08 0.07 0.06 0.05 0.05 0.05 0.05 0.04 0.03 0.03 0.03 0.03 0.04
0.03 0.03 0.03 0.03 0.03 0.05 0.05 0.08 0.09 0.09 0.09 0.09 0.08 0.07 0.07 0.07 0.07 0.07 0.10 0.13 0.17 0.21 0.21 0.19 0.20 0.20 0.17 0.10 0.09 0.08 0.08 0.08 0.07 0.07 0.06 0.06 0.05 0.04 0.03 0.03 0.03 0.03 0.03
0.05 0.04 0.04 0.03 0.04 0.05 0.06 0.08 0.08 0.10 0.11 0.10 0.08 0.09 0.08 0.07 0.08 0.08 0.10 0.14 0.16 0.17 0.17 0.17 0.19 0.19 0.15 0.11 0.10 0.09 0.09 0.08 0.07 0.07 0.07 0.07 0.06 0.06 0.05 0.04 0.04 0.04 0.04
0.06 0.06 0.05 0.04 0.04 0.04 0.05 0.07 0.07 0.10 0.11 0.10 0.09 0.09 0.08 0.09 0.07 0.07 0.07 0.08 0.09 0.11 0.13 0.13 0.14 0.12 0.10 0.11 0.13 0.14 0.11 0.08 0.07 0.09 0.08 0.08 0.07 0.06 0.05 0.05 0.05 0.05 0.05
0.04 0.03 0.04 0.04 0.04 0.04 0.04 0.04 0.04 0.07 0.08 0.09 0.08 0.07 0.08 0.08 0.07 0.06 0.06 0.06 0.09 0.11 0.12 0.13 0.12 0.11 0.12 0.14 0.15 0.14 0.11 0.10 0.09 0.07 0.05 0.03 0.03 0.03 0.04 0.04 0.05 0.05 0.05
0.02 0.02 0.03 0.04 0.04 0.04 0.04 0.04 0.05 0.06 0.06 0.06 0.05 0.04 0.04 0.04 0.04 0.04 0.05 0.06 0.08 0.11 0.14 0.15 0.16 0.16 0.16 0.17 0.16 0.13 0.10 0.09 0.07 0.05 0.03 0.03 0.03 0.04 0.04 0.04 0.04 0.04 0.04
0.02 0.02 0.02 0.03 0.03 0.04 0.05 0.05 0.05 0.04 0.04 0.04 0.04 0.04 0.03 0.03 0.03 0.03 0.04 0.05 0.05 0.06 0.08 0.12 0.16 0.15 0.14 0.14 0.12 0.08 0.07 0.06 0.06 0.05 0.04 0.04 0.04 0.04 0.04 0.04 0.04 0.03 0.03
0.02 0.02 0.02 0.03 0.02 0.02 0.04 0.05 0.05 0.03 0.03 0.03 0.03 0.03 0.03 0.03 0.03 0.02 0.02 0.02 0.02 0.03 0.05 0.07 0.08 0.08 0.08 0.09 0.08 0.07 0.05 0.04 0.04 0.04 0.03 0.03 0.02 0.02 0.03 0.04 0.04 0.03 0.02
0.02 0.01 0.02 0.02 0.01 0.01 0.01 0.02 0.02 0.02 0.01 0.02 0.02 0.02 0.02 0.02 0.01 0.01 0.02 0.02 0.02 0.01 0.02 0.03 0.05 0.07 0.07 0.05 0.04 0.04 0.03 0.03 0.03 0.03 0.02 0.02 0.02 0.01 0.01 0.02 0.03 0.03 0.02
0.02 0.01 0.01 0.01 0.01 0.01 0.01 0.01 0.01 0.01 0.01 0.01 0.01 0.01 0.01 0.01 0.01 0.01 0.01 0.02 0.02 0.01 0.02 0.02 0.02 0.03 0.05 0.03 0.01 0.02 0.02 0.03 0.04 0.03 0.02 0.01 0.01 0.01 0.01 0.01 0.01 0.01 0.01
0.02 0.01 0.02 0.01 0.01 0.01 0.00 0.00 0.00 0.01 0.01 0.01 0.01 0.01 0.01 0.01 0.01 0.01 0.01 0.02 0.01 0.01 0.01 0.01 0.01 0.01 0.02 0.02 0.02 0.02 0.02 0.02 0.02 0.02 0.01 0.01 0.02 0.02 0.03 0.03 0.01 0.01 0.01
MSLP
1015.77 1015.84 1015.88 1015.88 1015.87 1015.86 1015.86 1015.87 1015.86 1015.83 1015.77 1015.68 1015.60 1015.55 1015.58 1015.72 1015.99 1016.39 1016.87 1017.40 1017.92 1018.37 1018.73 1018.97 1019.11 1019.18 1019.22 1019.26 1019.33 1019.45 1019.61 1019.81 1020.04 1020.26 1020.48 1020.68 1020.86 1021.01 1021.15 1021.27 1021.37 1021.46 1021.54
1015.70 1015.76 1015.79 1015.78 1015.77 1015.76 1015.76 1015.76 1015.76 1015.75 1015.70 1015.63 1015.56 1015.51 1015.52 1015.61 1015.81 1016.13 1016.53 1017.00 1017.48 1017.94 1018.34 1018.66 1018.90 1019.08 1019.20 1019.31 1019.42 1019.54 1019.68 1019.84 1020.02 1020.21 1020.40 1020.58 1020.74 1020.90 1021.03 1021.14 1021.23 1021.29 1021.34
1015.64 1015.70 1015.73 1015.73 1015.73 1015.73 1015.74 1015.76 1015.77 1015.76 1015.73 1015.67 1015.59 1015.52 1015.48 1015.50 1015.60 1015.80 1016.10 1016.46 1016.88 1017.30 1017.72 1018.10 1018.42 1018.70 1018.92 1019.11 1019.28 1019.42 1019.56 1019.70 1019.85 1020.00 1020.15 1020.31 1020.46 1020.61 1020.75 1020.86 1020.95 1021.01 1021.06
1015.58 1015.63 1015.68 1015.71 1015.74 1015.77 1015.80 1015.84 1015.86 1015.87 1015.84 1015.78 1015.69 1015.59 1015.50 1015.44 1015.43 1015.50 1015.66 1015.89 1016.19 1016.55 1016.93 1017.32 1017.69 1018.04 1018.35 1018.62 1018.85 1019.04 1019.20 1019.34 1019.46 1019.59 1019.72 1019.86 1020.01 1020.16 1020.30 1020.43 1020.54 1020.63 1020.70
1015.48 1015.54 1015.61 1015.68 1015.75 1015.82 1015.89 1015.95 1015.99 1016.01 1015.99 1015.94 1015.84 1015.73 1015.59 1015.47 1015.37 1015.31 1015.32 1015.41 1015.57 1015.80 1016.09 1016.43 1016.80 1017.18 1017.53 1017.86 1018.15 1018.39 1018.58 1018.74 1018.88 1019.00 1019.13 1019.27 1019.42 1019.58 1019.74 1019.89 1020.03 1020.16 1020.28
1015.33 1015.39 1015.49 1015.61 1015.73 1015.84 1015.94 1016.03 1016.09 1016.12 1016.11 1016.08 1016.00 1015.90 1015.76 1015.61 1015.45 1015.30 1015.18 1015.12 1015.12 1015.19 1015.35 1015.58 1015.88 1016.22 1016.58 1016.93 1017.26 1017.55 1017.79 1017.99 1018.15 1018.30 1018.44 1018.58 1018.74 1018.91 1019.10 1019.28 1019.46 1019.64 1019.80
1015.13 1015.20 1015.32 1015.47 1015.63 1015.77 1015.90 1016.00 1016.07 1016.12 1016.14 1016.14 1016.12 1016.06 1015.97 1015.84 1015.68 1015.49 1015.28 1015.08 1014.93 1014.83 1014.82 1014.90 1015.07 1015.33 1015.64 1015.98 1016.33 1016.65 1016.94 1017.19 1017.39 1017.57 1017.73 1017.90 1018.06 1018.25 1018.44 1018.64 1018.85 1019.06 1019.27
1014.91 1014.97 1015.10 1015.27 1015.44 1015.61 1015.74 1015.84 1015.92 1015.98 1016.03 1016.08 1016.13 1016.17 1016.17 1016.13 1016.01 1015.83 1015.58 1015.30 1015.01 1014.75 1014.57 1014.48 1014.50 1014.63 1014.86 1015.17 1015.51 1015.85 1016.18 1016.47 1016.72 1016.93 1017.12 1017.29 1017.45 1017.62 1017.81 1018.00 1018.21 1018.43 1018.67
1014.72 1014.76 1014.88 1015.04 1015.21 1015.36 1015.48 1015.56 1015.62 1015.69 1015.77 1015.89 1016.03 1016.18 1016.30 1016.37 1016.36 1016.24 1016.01 1015.69 1015.31 1014.93 1014.60 1014.35 1014.22 1014.23 1014.37 1014.61 1014.93 1015.28 1015.63 1015.96 1016.24 1016.47 1016.65 1016.81 1016.94 1017.08 1017.21 1017.37 1017.54 1017.73 1017.96
1014.61 1014.63 1014.72 1014.85 1014.98 1015.09 1015.17 1015.21 1015.25 1015.31 1015.41 1015.57 1015.80 1016.05 1016.31 1016.52 1016.63 1016.60 1016.43 1016.12 1015.72 1015.27 1014.84 1014.47 1014.23 1014.14 1014.20 1014.39 1014.68 1015.03 1015.39 1015.72 1016.00 1016.22 1016.38 1016.49 1016.56 1016.61 1016.66 1016.73 1016.82 1016.95 1017.13
1014.62 1014.60 1014.66 1014.74 1014.83 1014.88 1014.90 1014.89 1014.88 1014.91 1015.01 1015.20 1015.48 1015.82 1016.18 1016.51 1016.73 1016.81 1016.72 1016.47 1016.09 1015.64 1015.17 1014.76 1014.47 1014.33 1014.35 1014.51 1014.78 1015.11 1015.46 1015.78 1016.03 1016.20 1016.30 1016.32 1016.28 1016.22 1016.14 1016.09 1016.07 1016.11 1016.21
1014.75 1014.71 1014.72 1014.76 1014.78 1014.77 1014.73 1014.65 1014.59 1014.58 1014.66 1014.84 1015.14 1015.52 1015.94 1016.34 1016.64 1016.81 1016.80 1016.63 1016.32 1015.92 1015.50 1015.12 1014.85 1014.73 1014.75 1014.91 1015.18 1015.49 1015.81 1016.09 1016.28 1016.38 1016.37 1016.27 1016.10 1015.90 1015.68 1015.48 1015.33 1015.25 1015.25
1014.98 1014.92 1014.90 1014.89 1014.86 1014.80 1014.70 1014.58 1014.46 1014.40 1014.44 1014.59 1014.85 1015.22 1015.63 1016.04 1016.38 1016.59 1016.65 1016.56 1016.35 1016.05 1015.73 1015.46 1015.29 1015.24 1015.32 1015.53 1015.80 1016.11 1016.39 1016.60 1016.71 1016.70 1016.57 1016.34 1016.02 1015.67 1015.30 1014.96 1014.68 1014.47 1014.37
1015.25 1015.19 1015.15 1015.11 1015.05 1014.96 1014.82 1014.66 1014.52 1014.42 1014.40 1014.49 1014.70 1014.99 1015.34 1015.70 1016.01 1016.22 1016.32 1016.30 1016.18 1016.02 1015.85 1015.74 1015.71 1015.79 1015.98 1016.25 1016.56 1016.86 1017.11 1017.25 1017.26 1017.13 1016.88 1016.51 1016.06 1015.58 1015.08 1014.62 1014.22 1013.91 1013.72
1015.50 1015.45 1015.41 1015.37 1015.31 1015.20 1015.07 1014.91 1014.75 1014.62 1014.57 1014.59 1014.71 1014.91 1015.15 1015.40 1015.63 1015.80 1015.90 1015.92 1015.91 1015.88 1015.88 1015.94 1016.09 1016.34 1016.65 1017.01 1017.37 1017.67 1017.87 1017.94 1017.86 1017.64 1017.27 1016.80 1016.26 1015.68 1015.10 1014.56 1014.08 1013.70 1013.44
1015.68 1015.66 1015.64 1015.62 1015.57 1015.49 1015.38 1015.25 1015.11 1014.99 1014.91 1014.89 1014.92 1015.00 1015.12 1015.24 1015.36 1015.45 1015.51 1015.56 1015.61 1015.70 1015.86 1016.10 1016.43 1016.83 1017.28 1017.73 1018.13 1018.43 1018.61 1018.63 1018.48 1018.18 1017.75 1017.23 1016.64 1016.03 1015.42 1014.85 1014.36 1013.94 1013.65
1015.79 1015.80 1015.81 1015.82 1015.80 1015.77 1015.71 1015.64 1015.55 1015.46 1015.38 1015.33 1015.30 1015.28 1015.28 1015.27 1015.27 1015.26 1015.26 1015.30 1015.40 1015.58 1015.86 1016.24 1016.72 1017.25 1017.81 1018.33 1018.77 1019.09 1019.25 1019.24 1019.06 1018.74 1018.30 1017.79 1017.22 1016.65 1016.09 1015.56 1015.10 1014.70 1014.40
1015.85 1015.89 1015.94 1015.97 1016.00 1016.02 1016.02 1016.01 1015.99 1015.95 1015.91 1015.86 1015.79 1015.71 1015.61 1015.50 1015.38 1015.28 1015.22 1015.23 1015.34 1015.57 1015.92 1016.40 1016.97 1017.59 1018.21 1018.78 1019.24 1019.56 1019.72 1019.72 1019.55 1019.26 1018.88 1018.44 1017.97 1017.50 1017.05 1016.63 1016.24 1015.91 1015.64
1015.90 1015.98 1016.05 1016.12 1016.18 1016.24 1016.30 1016.35 1016.39 1016.42 1016.42 1016.39 1016.32 1016.20 1016.05 1015.87 1015.67 1015.50 1015.38 1015.36 1015.45 1015.68 1016.06 1016.56 1017.16 1017.81 1018.45 1019.03 1019.49 1019.82 1020.00 1020.02 1019.91 1019.70 1019.43 1019.13 1018.82 1018.51 1018.22 1017.94 1017.68 1017.44 1017.23
1016.00 1016.11 1016.20 1016.29 1016.37 1016.45 1016.54 1016.63 1016.72 1016.79 1016.84 1016.85 1016.80 1016.69 1016.53 1016.32 1016.09 1015.87 1015.70 1015.64 1015.69 1015.90 1016.25 1016.72 1017.30 1017.91 1018.52 1019.07 1019.52 1019.85 1020.05 1020.12 1020.11 1020.02 1019.90 1019.78 1019.66 1019.55 1019.45 1019.35 1019.23 1019.11 1018.98
1016.17 1016.31 1016.41 1016.50 1016.58 1016.66 1016.75 1016.85 1016.96 1017.06 1017.15 1017.19 1017.18 1017.11 1016.96 1016.76 1016.53 1016.30 1016.11 1016.01 1016.02 1016.17 1016.46 1016.86 1017.36 1017.90 1018.43 1018.92 1019.34 1019.66 1019.89 1020.03 1020.12 1020.18 1020.24 1020.31 1020.40 1020.49 1020.59 1020.66 1020.70 1020.70 1020.66
1016.40 1016.57 1016.68 1016.75 1016.81 1016.86 1016.92 1017.00 1017.10 1017.21 1017.32 1017.39 1017.42 1017.39 1017.29 1017.13 1016.93 1016.71 1016.52 1016.40 1016.37 1016.46 1016.66 1016.97 1017.35 1017.79 1018.22 1018.64 1019.00 1019.30 1019.56 1019.77 1019.97 1020.17 1020.40 1020.66 1020.94 1021.23 1021.50 1021.74 1021.91 1022.02 1022.07
1016.65 1016.83 1016.94 1017.00 1017.02 1017.03 1017.04 1017.08 1017.15 1017.24 1017.35 1017.44 1017.51 1017.53 1017.48 1017.38 1017.23 1017.05 1016.89 1016.76 1016.70 1016.72 1016.84 1017.04 1017.31 1017.63 1017.95 1018.28 1018.58 1018.86 1019.13 1019.40 1019.70 1020.02 1020.39 1020.80 1021.24 1021.68 1022.09 1022.45 1022.74 1022.94 1023.06
1016.82 1017.01 1017.12 1017.16 1017.15 1017.12 1017.08 1017.07 1017.10 1017.17 1017.26 1017.36 1017.46 1017.52 1017.54 1017.50 1017.41 1017.29 1017.16 1017.05 1016.97 1016.95 1017.00 1017.11 1017.27 1017.47 1017.69 1017.93 1018.17 1018.43 1018.70 1019.00 1019.36 1019.77 1020.24 1020.75 1021.29 1021.82 1022.32 1022.76 1023.12 1023.38 1023.57
1016.83 1017.03 1017.13 1017.16 1017.13 1017.07 1017.00 1016.96 1016.95 1017.00 1017.08 1017.19 1017.31 1017.41 1017.48 1017.50 1017.48 1017.42 1017.33 1017.25 1017.17 1017.13 1017.13 1017.17 1017.26 1017.37 1017.51 1017.67 1017.86 1018.08 1018.33 1018.65 1019.03 1019.48 1019.98 1020.54 1021.12 1021.69 1022.22 1022.69 1023.08 1023.38 1023.60
1016.61 1016.80 1016.91 1016.94 1016.91 1016.84 1016.78 1016.73 1016.72 1016.76 1016.84 1016.97 1017.11 1017.24 1017.35 1017.42 1017.45 1017.44 1017.40 1017.35 1017.30 1017.26 1017.24 1017.25 1017.28 1017.34 1017.42 1017.53 1017.67 1017.85 1018.08 1018.38 1018.74 1019.18 1019.68 1020.22 1020.79 1021.34 1021.86 1022.32 1022.71 1023.02 1023.27
Thickness
5764 5764 5762 5761 5761 5761 5761 5761 5761 5762 5763 5763 5763 5764 5763 5763 5763 5760 5757 5754 5753 5751 5749 5747 5745 5743 5741 5740 5738 5737 5735 5733 5731 5730 5728 5727 5725 5723 5722 5720 5719 5718 5716
5764 5764 5763 5762 5763 5762 5762 5762 5763 5763 5763 5764 5764 5764 5764 5764 5763 5762 5758 5756 5754 5752 5751 5749 5747 5745 5743 5741 5739 5738 5736 5734 5733 5731 5729 5728 5726 5724 5723 5721 5719 5718 5717
5764 5764 5763 5763 5764 5764 5763 5763 5763 5763 5764 5764 5764 5765 5765 5765 5764 5763 5761 5758 5756 5754 5753 5751 5749 5747 5745 5743 5741 5739 5737 5736 5734 5732 5730 5729 5727 5725 5724 5722 5720 5719 5717
5765 5764 5764 5764 5764 5764 5764 5763 5763 5762 5762 5762 5763 5765 5766 5766 5766 5765 5763 5762 5760 5758 5755 5753 5751 5750 5748 5746 5744 5741 5739 5737 5736 5734 5732 5730 5728 5727 5725 5723 5721 5720 5718
5766 5765 5765 5765 5764 5764 5764 5764 5763 5761 5759 5759 5762 5764 5766 5767 5767 5767 5766 5765 5763 5762 5760 5757 5754 5752 5749 5747 5746 5743 5741 5739 5737 5735 5734 5732 5730 5728 5726 5724 5722 5720 5719
5767 5766 5766 5765 5765 5763 5762 5762 5760 5761 5759 5759 5761 5763 5764 5766 5767 5768 5767 5767 5766 5765 5762 5760 5755 5752 5750 5749 5747 5745 5743 5741 5739 5737 5735 5733 5731 5729 5727 5725 5723 5721 5719
5767 5766 5765 5764 5764 5762 5761 5761 5760 5759 5758 5760 5756 5755 5760 5765 5766 5767 5768 5768 5767 5766 5764 5761 5757 5755 5751 5749 5747 5745 5744 5742 5740 5738 5736 5734 5732 5730 5728 5726 5724 5722 5720
5767 5767 5765 5764 5763 5762 5760 5760 5759 5758 5758 5759 5754 5749 5747 5752 5760 5765 5765 5764 5764 5765 5763 5761 5757 5755 5752 5750 5747 5745 5743 5741 5739 5737 5736 5734 5732 5730 5728 5726 5724 5722 5721
5768 5767 5766 5765 5764 5762 5760 5760 5760 5757 5755 5757 5757 5750 5743 5741 5749 5756 5759 5760 5761 5761 5760 5759 5756 5753 5751 5749 5747 5744 5742 5740 5738 5737 5735 5733 5730 5729 5727 5725 5723 5722 5720
5769 5768 5767 5765 5764 5763 5761 5761 5761 5759 5757 5754 5755 5756 5754 5752 5744 5743 5750 5755 5756 5755 5755 5755 5752 5750 5748 5747 5745 5743 5741 5738 5736 5734 5732 5730 5728 5726 5725 5723 5722 5720 5719
5770 5769 5767 5766 5764 5763 5762 5761 5760 5759 5757 5755 5753 5753 5752 5751 5749 5742 5738 5743 5747 5750 5750 5748 5747 5747 5745 5743 5741 5739 5737 5734 5732 5730 5728 5727 5725 5723 5721 5720 5719 5718 5716
5770 5769 5768 5766 5764 5763 5761 5761 5760 5758 5757 5756 5754 5753 5750 5747 5745 5743 5738 5737 5737 5741 5744 5744 5743 5741 5740 5738 5736 5734 5732 5729 5727 5726 5723 5721 5720 5719 5717 5716 5715 5714 5713
5769 5769 5768 5766 5764 5763 5761 5760 5758 5757 5756 5754 5753 5752 5751 5750 5749 5746 5740 5736 5734 5735 5736 5737 5737 5736 5734 5732 5729 5727 5725 5723 5721 5719 5717 5715 5714 5712 5711 5710 5709 5708 5707
5770 5769 5767 5766 5764 5763 5761 5759 5757 5755 5755 5753 5752 5751 5750 5750 5749 5746 5741 5735 5728 5727 5729 5728 5730 5729 5727 5724 5721 5719 5717 5715 5714 5712 5710 5708 5707 5706 5704 5703 5702 5701 5699
5770 5768 5766 5764 5762 5760 5759 5756 5754 5752 5752 5750 5749 5748 5747 5747 5746 5745 5743 5738 5729 5721 5719 5720 5721 5721 5719 5716 5713 5711 5709 5706 5705 5703 5702 5700 5699 5697 5696 5695 5694 5692 5691
5768 5766 5764 5762 5760 5758 5756 5754 5751 5750 5748 5746 5745 5743 5742 5742 5742 5741 5739 5736 5733 5725 5716 5715 5714 5713 5712 5710 5706 5703 5700 5698 5695 5694 5693 5691 5690 5689 5687 5686 5684 5683 5681
5765 5763 5761 5759 5757 5755 5753 5751 5748 5746 5743 5741 5740 5739 5737 5737 5736 5736 5734 5732 5728 5724 5714 5710 5709 5707 5704 5701 5698 5695 5692 5690 5686 5684 5683 5682 5680 5679 5677 5676 5675 5673 5672
5763 5760 5758 5756 5754 5751 5749 5747 5744 5741 5738 5736 5734 5732 5731 5732 5730 5729 5728 5725 5723 5720 5713 5705 5701 5699 5696 5693 5690 5688 5685 5682 5678 5675 5673 5671 5670 5668 5666 5665 5663 5662 5661
5759 5757 5754 5752 5749 5747 5745 5742 5739 5737 5734 5731 5729 5726 5725 5724 5723 5722 5721 5719 5717 5715 5710 5702 5695 5692 5688 5686 5683 5680 5677 5673 5670 5666 5663 5661 5659 5657 5655 5654 5652 5651 5649
5755 5752 5750 5747 5745 5742 5739 5737 5734 5731 5729 5726 5723 5720 5718 5717 5715 5715 5713 5711 5709 5706 5701 5696 5689 5685 5680 5678 5675 5670 5666 5663 5661 5658 5654 5651 5648 5646 5644 5642 5640 5639 5637
5752 5748 5745 5742 5739 5736 5732 5730 5729 5726 5723 5720 5717 5714 5712 5710 5708 5707 5706 5702 5701 5697 5693 5687 5682 5677 5672 5668 5665 5662 5657 5654 5651 5649 5646 5642 5638 5635 5632 5630 5628 5626 5625
5746 5742 5739 5735 5731 5727 5724 5723 5722 5720 5717 5714 5711 5709 5706 5703 5701 5699 5696 5695 5693 5689 5685 5680 5675 5670 5665 5661 5658 5654 5650 5646 5642 5640 5637 5633 5630 5626 5622 5619 5616 5614 5612
5740 5736 5732 5728 5723 5718 5717 5716 5714 5713 5710 5707 5704 5702 5700 5696 5693 5691 5689 5687 5684 5681 5679 5674 5667 5663 5658 5655 5651 5647 5643 5639 5635 5632 5630 5624 5621 5617 5613 5609 5606 5603 5600
5734 5730 5726 5722 5718 5712 5710 5709 5707 5706 5703 5699 5696 5694 5690 5687 5685 5683 5682 5678 5675 5671 5669 5666 5661 5657 5652 5648 5644 5641 5637 5632 5628 5625 5622 5615 5612 5608 5604 5599 5596 5592 5589
5729 5725 5721 5716 5712 5707 5704 5703 5701 5700 5696 5692 5689 5684 5682 5679 5676 5675 5673 5669 5665 5661 5659 5656 5652 5648 5644 5640 5636 5632 5628 5623 5618 5615 5613 5608 5604 5600 5595 5590 5586 5582 5579
5725 5720 5715 5711 5707 5702 5698 5697 5696 5696 5691 5686 5681 5677 5673 5670 5668 5666 5664 5660 5656 5653 5651 5648 5644 5640 5636 5632 5628 5624 5620 5616 5611 5606 5604 5600 5596 5593 5586 5582 5577 5573 5569